Time,TemperatureF,DewpointF,PressureIn,WindDirection,WindDirectionDegrees,WindSpeedMPH,WindSpeedGustMPH,Humidity,HourlyPrecipIn,Conditions,Clouds,dailyrainin,SoftwareType,DateUTC
2013-03-18 00:02:00,65.8,42.8,29.72,NNW,332,8.0,26.0,43,0.00,,,0.00,meteohub,2013-03-18 05:02:00,
2013-03-18 00:07:00,65.7,43.2,29.71,North,349,0.0,26.0,44,0.00,,,0.00,meteohub,2013-03-18 05:07:00,
2013-03-18 00:12:00,65.5,43.0,29.69,North,350,0.0,12.0,44,0.00,,,0.00,meteohub,2013-03-18 05:12:00,
2013-03-18 00:17:00,65.1,43.3,29.70,North,350,0.0,12.0,45,0.00,,,0.00,meteohub,2013-03-18 05:17:00,
2013-03-18 00:22:00,64.8,43.0,29.71,North,350,0.0,12.0,45,0.00,,,0.00,meteohub,2013-03-18 05:22:00,
2013-03-18 00:27:00,64.2,43.0,29.70,North,349,0.0,12.0,46,0.00,,,0.00,meteohub,2013-03-18 05:27:00,
2013-03-18 00:32:00,63.9,42.6,29.69,North,349,0.0,0.0,46,0.00,,,0.00,meteohub,2013-03-18 05:32:00,
2013-03-18 00:37:00,63.3,42.8,29.69,North,349,0.0,0.0,47,0.00,,,0.00,meteohub,2013-03-18 05:37:00,
2013-03-18 00:42:00,63.1,42.6,29.69,NNW,348,0.0,0.0,47,0.00,,,0.00,meteohub,2013-03-18 05:42:00,
2013-03-18 00:47:00,62.8,42.8,29.68,NNW,346,0.0,0.0,48,0.00,,,0.00,meteohub,2013-03-18 05:47:00,
2013-03-18 00:52:00,62.4,42.4,29.68,NNW,348,0.0,0.0,48,0.00,,,0.00,meteohub,2013-03-18 05:52:00,
2013-03-18 00:57:00,62.2,42.8,29.68,North,355,0.0,0.0,49,0.00,,,0.00,meteohub,2013-03-18 05:57:00,
2013-03-18 01:02:00,61.9,43.0,29.69,North,350,0.0,0.0,50,0.00,,,0.00,meteohub,2013-03-18 06:02:00,
2013-03-18 01:07:00,61.9,43.0,29.68,North,350,0.0,0.0,50,0.00,,,0.00,meteohub,2013-03-18 06:07:00,
2013-03-18 01:12:00,61.5,42.6,29.67,ESE,107,0.0,0.0,50,0.00,,,0.00,meteohub,2013-03-18 06:12:00,
2013-03-18 01:17:00,61.5,43.2,29.67,ESE,122,0.0,0.0,51,0.00,,,0.00,meteohub,2013-03-18 06:17:00,
2013-03-18 01:22:00,61.3,43.0,29.67,SE,127,0.0,6.0,51,0.00,,,0.00,meteohub,2013-03-18 06:22:00,
2013-03-18 01:27:00,61.3,43.0,29.67,SE,126,0.0,6.0,51,0.00,,,0.00,meteohub,2013-03-18 06:27:00,
2013-03-18 01:32:00,61.3,43.0,29.67,SE,126,0.0,0.0,51,0.00,,,0.00,meteohub,2013-03-18 06:32:00,
2013-03-18 01:37:00,61.5,43.2,29.67,SE,124,0.0,0.0,51,0.00,,,0.00,meteohub,2013-03-18 06:37:00,
2013-03-18 01:42:00,61.5,43.2,29.67,ESE,115,0.0,0.0,51,0.00,,,0.00,meteohub,2013-03-18 06:42:00,
2013-03-18 01:47:00,61.5,43.2,29.67,ESE,115,0.0,0.0,51,0.00,,,0.00,meteohub,2013-03-18 06:47:00,
2013-03-18 01:52:00,61.3,43.0,29.68,ESE,114,0.0,6.0,51,0.00,,,0.00,meteohub,2013-03-18 06:52:00,
2013-03-18 01:57:00,61.3,43.5,29.67,ESE,110,0.0,6.0,52,0.00,,,0.00,meteohub,2013-03-18 06:57:00,
2013-03-18 02:02:00,61.2,43.3,29.67,ESE,110,0.0,0.0,52,0.00,,,0.00,meteohub,2013-03-18 07:02:00,
2013-03-18 02:07:00,61.0,43.2,29.67,ESE,110,0.0,0.0,52,0.00,,,0.00,meteohub,2013-03-18 07:07:00,
2013-03-18 02:12:00,60.6,43.3,29.68,ESE,110,0.0,0.0,53,0.00,,,0.00,meteohub,2013-03-18 07:12:00,
2013-03-18 02:17:00,60.4,43.2,29.68,ESE,110,0.0,0.0,53,0.00,,,0.00,meteohub,2013-03-18 07:17:00,
2013-03-18 02:22:00,60.3,43.0,29.68,ESE,110,0.0,0.0,53,0.00,,,0.00,meteohub,2013-03-18 07:22:00,
2013-03-18 02:27:00,60.3,43.0,29.68,ESE,110,0.0,0.0,53,0.00,,,0.00,meteohub,2013-03-18 07:27:00,
2013-03-18 02:32:00,60.1,43.3,29.68,ESE,110,0.0,0.0,54,0.00,,,0.00,meteohub,2013-03-18 07:32:00,
2013-03-18 02:37:00,60.1,43.3,29.68,ESE,110,0.0,0.0,54,0.00,,,0.00,meteohub,2013-03-18 07:37:00,
2013-03-18 02:42:00,59.7,43.0,29.68,ESE,110,0.0,0.0,54,0.00,,,0.00,meteohub,2013-03-18 07:42:00,
2013-03-18 02:47:00,59.5,43.3,29.68,ESE,110,0.0,0.0,55,0.00,,,0.00,meteohub,2013-03-18 07:47:00,
2013-03-18 02:52:00,59.4,43.2,29.68,ESE,110,0.0,0.0,55,0.00,,,0.00,meteohub,2013-03-18 07:52:00,
2013-03-18 02:57:00,59.2,43.0,29.68,ESE,110,0.0,0.0,55,0.00,,,0.00,meteohub,2013-03-18 07:57:00,
2013-03-18 03:02:00,59.0,43.3,29.68,ESE,110,0.0,0.0,56,0.00,,,0.00,meteohub,2013-03-18 08:02:00,
2013-03-18 03:07:00,59.0,43.3,29.68,ESE,110,0.0,0.0,56,0.00,,,0.00,meteohub,2013-03-18 08:07:00,
2013-03-18 03:13:00,58.8,43.2,29.68,ESE,110,0.0,0.0,56,0.00,,,0.00,meteohub,2013-03-18 08:13:00,
2013-03-18 03:18:00,58.8,43.2,29.68,ESE,110,0.0,0.0,56,0.00,,,0.00,meteohub,2013-03-18 08:18:00,
2013-03-18 03:23:00,58.6,43.5,29.68,ESE,110,0.0,0.0,57,0.00,,,0.00,meteohub,2013-03-18 08:23:00,
2013-03-18 03:28:00,58.6,43.5,29.68,ESE,114,0.0,0.0,57,0.00,,,0.00,meteohub,2013-03-18 08:28:00,
2013-03-18 03:33:00,58.6,43.5,29.68,ESE,119,0.0,0.0,57,0.00,,,0.00,meteohub,2013-03-18 08:33:00,
2013-03-18 03:38:00,58.5,43.3,29.68,ESE,123,0.0,0.0,57,0.00,,,0.00,meteohub,2013-03-18 08:38:00,
2013-03-18 03:43:00,58.3,43.2,29.68,SE,125,0.0,1.0,57,0.00,,,0.00,meteohub,2013-03-18 08:43:00,
2013-03-18 03:48:00,58.1,43.0,29.68,SE,125,0.0,1.0,57,0.00,,,0.00,meteohub,2013-03-18 08:48:00,
2013-03-18 03:53:00,57.9,42.8,29.68,SE,125,0.0,1.0,57,0.00,,,0.00,meteohub,2013-03-18 08:53:00,
2013-03-18 03:58:00,57.7,42.6,29.68,SE,125,0.0,1.0,57,0.00,,,0.00,meteohub,2013-03-18 08:58:00,
2013-03-18 04:03:00,57.6,43.0,29.68,SE,124,0.0,0.0,58,0.00,,,0.00,meteohub,2013-03-18 09:03:00,
2013-03-18 04:08:00,57.4,42.8,29.68,SE,124,0.0,0.0,58,0.00,,,0.00,meteohub,2013-03-18 09:08:00,
2013-03-18 04:13:00,57.2,42.6,29.67,SE,125,0.0,0.0,58,0.00,,,0.00,meteohub,2013-03-18 09:13:00,
2013-03-18 04:18:00,57.0,42.4,29.68,SE,125,0.0,0.0,58,0.00,,,0.00,meteohub,2013-03-18 09:18:00,
2013-03-18 04:23:00,57.0,42.8,29.67,SSW,202,0.0,0.0,59,0.00,,,0.00,meteohub,2013-03-18 09:23:00,
2013-03-18 04:28:00,56.8,42.3,29.68,SSW,203,0.0,0.0,58,0.00,,,0.00,meteohub,2013-03-18 09:28:00,
2013-03-18 04:33:00,56.7,42.4,29.68,SSW,203,0.0,6.0,59,0.00,,,0.00,meteohub,2013-03-18 09:33:00,
2013-03-18 04:38:00,56.3,42.6,29.68,SW,223,0.0,6.0,60,0.00,,,0.00,meteohub,2013-03-18 09:38:00,
2013-03-18 04:43:00,55.9,42.3,29.68,SW,222,0.0,0.0,60,0.00,,,0.00,meteohub,2013-03-18 09:43:00,
2013-03-18 04:48:00,55.6,42.3,29.68,SW,222,0.0,0.0,61,0.00,,,0.00,meteohub,2013-03-18 09:48:00,
2013-03-18 04:53:00,55.4,42.3,29.68,SW,222,0.0,5.0,61,0.00,,,0.00,meteohub,2013-03-18 09:53:00,
2013-03-18 04:58:00,55.2,42.4,29.68,SW,222,0.0,5.0,62,0.00,,,0.00,meteohub,2013-03-18 09:58:00,
2013-03-18 05:03:00,55.0,42.3,29.68,SW,222,0.0,5.0,62,0.00,,,0.00,meteohub,2013-03-18 10:03:00,
2013-03-18 05:08:00,54.9,42.1,29.68,SW,222,0.0,5.0,62,0.00,,,0.00,meteohub,2013-03-18 10:08:00,
2013-03-18 05:13:00,54.7,42.3,29.68,SW,222,0.0,0.0,63,0.00,,,0.00,meteohub,2013-03-18 10:13:00,
2013-03-18 05:18:00,54.3,42.1,29.68,SW,222,0.0,0.0,63,0.00,,,0.00,meteohub,2013-03-18 10:18:00,
2013-03-18 05:23:00,54.1,41.9,29.69,SW,222,0.0,0.0,63,0.00,,,0.00,meteohub,2013-03-18 10:23:00,
2013-03-18 05:28:00,54.0,41.7,29.69,SW,222,0.0,0.0,63,0.00,,,0.00,meteohub,2013-03-18 10:28:00,
2013-03-18 05:33:00,54.0,41.7,29.69,SW,222,0.0,0.0,63,0.00,,,0.00,meteohub,2013-03-18 10:33:00,
2013-03-18 05:38:00,53.8,41.5,29.69,SW,222,0.0,0.0,63,0.00,,,0.00,meteohub,2013-03-18 10:38:00,
2013-03-18 05:43:00,53.6,40.8,29.69,SW,222,0.0,0.0,62,0.00,,,0.00,meteohub,2013-03-18 10:43:00,
2013-03-18 05:48:00,53.4,41.2,29.69,SW,222,0.0,0.0,63,0.00,,,0.00,meteohub,2013-03-18 10:48:00,
2013-03-18 05:53:00,53.4,40.3,29.69,SW,222,0.0,0.0,61,0.00,,,0.00,meteohub,2013-03-18 10:53:00,
2013-03-18 05:58:00,53.2,39.2,29.70,SW,222,0.0,0.0,59,0.00,,,0.00,meteohub,2013-03-18 10:58:00,
2013-03-18 06:03:00,53.2,38.5,29.70,SW,222,0.0,0.0,57,0.00,,,0.00,meteohub,2013-03-18 11:03:00,
2013-03-18 06:08:00,53.2,37.9,29.70,SW,222,0.0,0.0,56,0.00,,,0.00,meteohub,2013-03-18 11:08:00,
2013-03-18 06:13:00,53.2,37.0,29.70,SW,222,0.0,3.0,54,0.00,,,0.00,meteohub,2013-03-18 11:13:00,
2013-03-18 06:18:00,53.4,37.6,29.71,SW,222,0.0,3.0,55,0.00,,,0.00,meteohub,2013-03-18 11:18:00,
2013-03-18 06:23:00,53.4,37.2,29.70,SW,222,0.0,3.0,54,0.00,,,0.00,meteohub,2013-03-18 11:23:00,
2013-03-18 06:28:00,53.2,36.5,29.71,SW,222,0.0,3.0,53,0.00,,,0.00,meteohub,2013-03-18 11:28:00,
2013-03-18 06:33:00,53.1,36.9,29.71,SW,222,0.0,0.0,54,0.00,,,0.00,meteohub,2013-03-18 11:33:00,
2013-03-18 06:38:00,52.9,36.1,29.72,SW,225,0.0,0.0,53,0.00,,,0.00,meteohub,2013-03-18 11:38:00,
2013-03-18 06:43:00,52.9,35.8,29.71,SW,229,0.0,0.0,52,0.00,,,0.00,meteohub,2013-03-18 11:43:00,
2013-03-18 06:49:00,52.9,36.1,29.72,SW,229,0.0,0.0,53,0.00,,,0.00,meteohub,2013-03-18 11:49:00,
2013-03-18 06:54:00,52.7,36.0,29.73,SW,229,0.0,0.0,53,0.00,,,0.00,meteohub,2013-03-18 11:54:00,
2013-03-18 06:59:00,52.5,36.9,29.73,SW,229,0.0,3.0,55,0.00,,,0.00,meteohub,2013-03-18 11:59:00,
2013-03-18 07:04:00,52.5,37.2,29.73,SW,229,0.0,3.0,56,0.00,,,0.00,meteohub,2013-03-18 12:04:00,
2013-03-18 07:09:00,52.3,37.9,29.73,SW,229,0.0,3.0,58,0.00,,,0.00,meteohub,2013-03-18 12:09:00,
2013-03-18 07:14:00,52.3,37.6,29.73,SW,229,0.0,3.0,57,0.00,,,0.00,meteohub,2013-03-18 12:14:00,
2013-03-18 07:19:00,52.0,37.6,29.74,SW,229,0.0,3.0,58,0.00,,,0.00,meteohub,2013-03-18 12:19:00,
2013-03-18 07:24:00,51.6,37.8,29.74,SW,229,0.0,0.0,59,0.00,,,0.00,meteohub,2013-03-18 12:24:00,
2013-03-18 07:29:00,51.3,37.4,29.75,SW,229,0.0,0.0,59,0.00,,,0.00,meteohub,2013-03-18 12:29:00,
2013-03-18 07:34:00,50.7,37.4,29.75,SW,229,0.0,0.0,60,0.00,,,0.00,meteohub,2013-03-18 12:34:00,
2013-03-18 07:39:00,50.4,37.4,29.75,SW,229,0.0,0.0,61,0.00,,,0.00,meteohub,2013-03-18 12:39:00,
2013-03-18 07:44:00,50.2,38.1,29.76,SW,229,0.0,0.0,63,0.00,,,0.00,meteohub,2013-03-18 12:44:00,
2013-03-18 07:49:00,50.2,38.8,29.76,SW,229,0.0,0.0,65,0.00,,,0.00,meteohub,2013-03-18 12:49:00,
2013-03-18 07:54:00,50.2,39.2,29.76,SW,229,0.0,0.0,66,0.00,,,0.00,meteohub,2013-03-18 12:54:00,
2013-03-18 07:59:00,50.2,38.8,29.77,SW,229,0.0,0.0,65,0.00,,,0.00,meteohub,2013-03-18 12:59:00,
2013-03-18 08:04:00,49.8,38.1,29.77,SW,229,0.0,0.0,64,0.00,,,0.00,meteohub,2013-03-18 13:04:00,
2013-03-18 08:09:00,49.6,37.9,29.77,SW,229,0.0,0.0,64,0.00,,,0.00,meteohub,2013-03-18 13:09:00,
2013-03-18 08:14:00,49.5,38.1,29.78,SW,229,0.0,0.0,65,0.00,,,0.00,meteohub,2013-03-18 13:14:00,
2013-03-18 08:19:00,49.5,38.7,29.78,SW,229,0.0,0.0,66,0.00,,,0.00,meteohub,2013-03-18 13:19:00,
2013-03-18 08:24:00,49.6,39.6,29.78,SW,229,0.0,0.0,68,0.00,,,0.00,meteohub,2013-03-18 13:24:00,
2013-03-18 08:29:00,50.0,39.9,29.79,NW,308,0.0,0.0,68,0.00,,,0.00,meteohub,2013-03-18 13:29:00,
2013-03-18 08:34:00,50.0,39.6,29.80,NW,309,0.0,0.0,67,0.00,,,0.00,meteohub,2013-03-18 13:34:00,
2013-03-18 08:39:00,50.2,40.1,29.79,NW,310,0.0,7.0,68,0.00,,,0.00,meteohub,2013-03-18 13:39:00,
2013-03-18 08:44:00,50.4,39.4,29.80,NW,310,0.0,7.0,66,0.00,,,0.00,meteohub,2013-03-18 13:44:00,
2013-03-18 08:49:00,50.7,39.4,29.80,NW,310,0.0,7.0,65,0.00,,,0.00,meteohub,2013-03-18 13:49:00,
2013-03-18 08:54:00,51.4,39.2,29.81,NW,310,0.0,5.0,63,0.00,,,0.00,meteohub,2013-03-18 13:54:00,
2013-03-18 08:59:00,52.2,39.6,29.80,WNW,303,0.0,5.0,62,0.00,,,0.00,meteohub,2013-03-18 13:59:00,
2013-03-18 09:04:00,53.1,39.2,29.80,WNW,300,6.0,6.0,59,0.00,,,0.00,meteohub,2013-03-18 14:04:00,
2013-03-18 09:09:00,55.0,37.2,29.81,NNW,332,9.0,9.0,51,0.00,,,0.00,meteohub,2013-03-18 14:09:00,
2013-03-18 09:14:00,57.0,37.0,29.81,NNW,336,9.0,13.0,47,0.00,,,0.00,meteohub,2013-03-18 14:14:00,
2013-03-18 09:20:00,58.5,36.7,29.81,NNW,340,14.0,14.0,44,0.00,,,0.00,meteohub,2013-03-18 14:20:00,
2013-03-18 09:25:00,59.2,36.7,29.82,NNW,334,8.0,13.0,43,0.00,,,0.00,meteohub,2013-03-18 14:25:00,
2013-03-18 09:30:00,60.1,36.9,29.82,NNW,336,8.0,18.0,42,0.00,,,0.00,meteohub,2013-03-18 14:30:00,
2013-03-18 09:35:00,61.2,36.7,29.83,NW,304,11.0,18.0,40,0.00,,,0.00,meteohub,2013-03-18 14:35:00,
2013-03-18 09:40:00,62.2,37.0,29.83,North,355,9.0,18.0,39,0.00,,,0.00,meteohub,2013-03-18 14:40:00,
2013-03-18 09:45:00,63.0,37.0,29.84,NW,325,13.0,18.0,38,0.00,,,0.00,meteohub,2013-03-18 14:45:00,
2013-03-18 09:50:00,62.4,37.2,29.84,North,5,8.0,24.0,39,0.00,,,0.00,meteohub,2013-03-18 14:50:00,
2013-03-18 09:55:00,62.1,37.4,29.84,NNE,22,15.0,24.0,40,0.00,,,0.00,meteohub,2013-03-18 14:55:00,
2013-03-18 10:00:00,62.2,38.3,29.85,NNW,344,7.0,24.0,41,0.00,,,0.00,meteohub,2013-03-18 15:00:00,
2013-03-18 10:05:00,61.9,37.9,29.85,NW,307,12.0,24.0,41,0.00,,,0.00,meteohub,2013-03-18 15:05:00,
2013-03-18 10:10:00,61.9,38.5,29.85,North,355,19.0,24.0,42,0.00,,,0.00,meteohub,2013-03-18 15:10:00,
2013-03-18 10:15:00,61.9,39.2,29.85,North,349,7.0,25.0,43,0.00,,,0.00,meteohub,2013-03-18 15:15:00,
2013-03-18 10:20:00,61.9,39.2,29.86,NNW,348,5.0,25.0,43,0.00,,,0.00,meteohub,2013-03-18 15:20:00,
2013-03-18 10:25:00,62.1,39.4,29.86,NNE,26,7.0,25.0,43,0.00,,,0.00,meteohub,2013-03-18 15:25:00,
2013-03-18 10:30:00,62.2,39.4,29.86,NW,317,7.0,25.0,43,0.00,,,0.00,meteohub,2013-03-18 15:30:00,
2013-03-18 10:35:00,61.5,39.4,29.87,NNE,25,11.0,25.0,44,0.00,,,0.00,meteohub,2013-03-18 15:35:00,
2013-03-18 10:40:00,61.3,39.7,29.87,North,5,13.0,25.0,45,0.00,,,0.00,meteohub,2013-03-18 15:40:00,
2013-03-18 10:45:00,61.0,40.1,29.87,NW,318,11.0,25.0,46,0.00,,,0.00,meteohub,2013-03-18 15:45:00,
2013-03-18 10:50:00,61.3,40.5,29.88,NNE,13,17.0,23.0,46,0.00,,,0.00,meteohub,2013-03-18 15:50:00,
2013-03-18 10:55:00,61.7,40.1,29.87,NW,307,12.0,23.0,45,0.00,,,0.00,meteohub,2013-03-18 15:55:00,
2013-03-18 11:00:00,61.9,40.3,29.88,NE,46,7.0,23.0,45,0.00,,,0.00,meteohub,2013-03-18 16:00:00,
2013-03-18 11:05:00,61.9,40.3,29.89,NE,52,2.0,23.0,45,0.00,,,0.00,meteohub,2013-03-18 16:05:00,
2013-03-18 11:10:00,62.1,40.5,29.90,NNW,331,7.0,23.0,45,0.00,,,0.00,meteohub,2013-03-18 16:10:00,
2013-03-18 11:15:00,61.5,39.9,29.90,NNW,342,11.0,20.0,45,0.00,,,0.00,meteohub,2013-03-18 16:15:00,
2013-03-18 11:20:00,61.2,40.8,29.90,NW,323,11.0,20.0,47,0.00,,,0.00,meteohub,2013-03-18 16:20:00,
2013-03-18 11:25:00,61.5,40.5,29.91,NNW,348,9.0,20.0,46,0.00,,,0.00,meteohub,2013-03-18 16:25:00,
2013-03-18 11:30:00,62.1,41.0,29.90,North,355,11.0,20.0,46,0.00,,,0.00,meteohub,2013-03-18 16:30:00,
2013-03-18 11:35:00,62.6,41.0,29.90,NW,321,11.0,20.0,45,0.00,,,0.00,meteohub,2013-03-18 16:35:00,
2013-03-18 11:40:00,62.2,40.6,29.91,NNW,342,7.0,17.0,45,0.00,,,0.00,meteohub,2013-03-18 16:40:00,
2013-03-18 11:45:00,61.9,40.8,29.91,NNE,18,0.0,17.0,46,0.00,,,0.00,meteohub,2013-03-18 16:45:00,
2013-03-18 11:50:00,62.2,40.6,29.91,NNW,346,9.0,19.0,45,0.00,,,0.00,meteohub,2013-03-18 16:50:00,
2013-03-18 11:55:00,63.1,40.8,29.91,NE,42,5.0,19.0,44,0.00,,,0.00,meteohub,2013-03-18 16:55:00,
2013-03-18 12:00:00,63.7,41.4,29.90,NNW,345,11.0,15.0,44,0.00,,,0.00,meteohub,2013-03-18 17:00:00,
2013-03-18 12:05:00,63.1,40.8,29.90,NE,51,2.0,15.0,44,0.00,,,0.00,meteohub,2013-03-18 17:05:00,
2013-03-18 12:10:00,63.3,41.0,29.91,NW,322,6.0,15.0,44,0.00,,,0.00,meteohub,2013-03-18 17:10:00,
2013-03-18 12:15:00,63.1,40.8,29.91,NNE,17,6.0,17.0,44,0.00,,,0.00,meteohub,2013-03-18 17:15:00,
2013-03-18 12:20:00,63.1,40.8,29.91,NNE,25,10.0,17.0,44,0.00,,,0.00,meteohub,2013-03-18 17:20:00,
2013-03-18 12:25:00,63.7,41.4,29.91,North,355,7.0,17.0,44,0.00,,,0.00,meteohub,2013-03-18 17:25:00,
2013-03-18 12:30:00,64.0,41.7,29.91,North,0,4.0,14.0,44,0.00,,,0.00,meteohub,2013-03-18 17:30:00,
2013-03-18 12:35:00,64.2,41.9,29.91,North,9,9.0,14.0,44,0.00,,,0.00,meteohub,2013-03-18 17:35:00,
2013-03-18 12:40:00,63.7,41.9,29.90,North,5,11.0,14.0,45,0.00,,,0.00,meteohub,2013-03-18 17:40:00,
2013-03-18 12:45:00,63.3,41.5,29.91,NW,320,10.0,14.0,45,0.00,,,0.00,meteohub,2013-03-18 17:45:00,
2013-03-18 12:50:00,63.5,41.7,29.91,NNE,16,5.0,19.0,45,0.00,,,0.00,meteohub,2013-03-18 17:50:00,
2013-03-18 12:55:00,64.0,41.7,29.90,NNW,339,10.0,19.0,44,0.00,,,0.00,meteohub,2013-03-18 17:55:00,
2013-03-18 13:00:00,63.9,41.5,29.90,NNW,327,5.0,17.0,44,0.00,,,0.00,meteohub,2013-03-18 18:00:00,
2013-03-18 13:05:00,64.0,41.7,29.90,East,85,5.0,17.0,44,0.00,,,0.00,meteohub,2013-03-18 18:05:00,
2013-03-18 13:11:00,64.6,41.5,29.90,NW,322,0.0,17.0,43,0.00,,,0.00,meteohub,2013-03-18 18:11:00,
2013-03-18 13:16:00,65.3,41.5,29.90,North,11,6.0,17.0,42,0.00,,,0.00,meteohub,2013-03-18 18:16:00,
2013-03-18 13:21:00,65.7,41.4,29.90,North,9,5.0,15.0,41,0.00,,,0.00,meteohub,2013-03-18 18:21:00,
2013-03-18 13:26:00,65.7,41.4,29.90,NNE,27,4.0,15.0,41,0.00,,,0.00,meteohub,2013-03-18 18:26:00,
2013-03-18 13:31:00,65.8,42.1,29.90,NNW,340,0.0,13.0,42,0.00,,,0.00,meteohub,2013-03-18 18:31:00,
2013-03-18 13:36:00,65.8,42.1,29.90,North,5,13.0,13.0,42,0.00,,,0.00,meteohub,2013-03-18 18:36:00,
2013-03-18 13:41:00,65.7,41.9,29.90,ENE,71,6.0,15.0,42,0.00,,,0.00,meteohub,2013-03-18 18:41:00,
2013-03-18 13:46:00,66.0,41.7,29.90,North,355,0.0,15.0,41,0.00,,,0.00,meteohub,2013-03-18 18:46:00,
2013-03-18 13:51:00,66.7,42.3,29.90,NW,322,0.0,15.0,41,0.00,,,0.00,meteohub,2013-03-18 18:51:00,
2013-03-18 13:56:00,66.9,41.9,29.90,NNE,15,9.0,15.0,40,0.00,,,0.00,meteohub,2013-03-18 18:56:00,
2013-03-18 14:01:00,66.7,41.7,29.90,NNW,329,11.0,13.0,40,0.00,,,0.00,meteohub,2013-03-18 19:01:00,
2013-03-18 14:06:00,66.7,41.7,29.90,NNW,348,10.0,13.0,40,0.00,,,0.00,meteohub,2013-03-18 19:06:00,
2013-03-18 14:11:00,66.0,41.7,29.89,NNW,347,8.0,14.0,41,0.00,,,0.00,meteohub,2013-03-18 19:11:00,
2013-03-18 14:16:00,66.0,41.7,29.90,NNW,331,9.0,14.0,41,0.00,,,0.00,meteohub,2013-03-18 19:16:00,
2013-03-18 14:21:00,66.0,41.7,29.90,North,349,0.0,16.0,41,0.00,,,0.00,meteohub,2013-03-18 19:21:00,
2013-03-18 14:26:00,66.9,41.9,29.89,North,5,7.0,16.0,40,0.00,,,0.00,meteohub,2013-03-18 19:26:00,
2013-03-18 14:31:00,67.3,42.1,29.89,NE,55,2.0,16.0,40,0.00,,,0.00,meteohub,2013-03-18 19:31:00,
2013-03-18 14:36:00,67.8,41.9,29.89,North,9,8.0,16.0,39,0.00,,,0.00,meteohub,2013-03-18 19:36:00,
2013-03-18 14:41:00,67.5,41.7,29.89,NW,317,8.0,12.0,39,0.00,,,0.00,meteohub,2013-03-18 19:41:00,
2013-03-18 14:47:00,67.6,41.7,29.89,ENE,67,0.0,12.0,39,0.00,,,0.00,meteohub,2013-03-18 19:47:00,
2013-03-18 14:52:00,68.4,41.0,29.89,NNE,21,4.0,14.0,37,0.00,,,0.00,meteohub,2013-03-18 19:52:00,
2013-03-18 14:57:00,69.1,41.7,29.88,NNW,343,1.0,14.0,37,0.00,,,0.00,meteohub,2013-03-18 19:57:00,
2013-03-18 15:02:00,68.7,42.1,29.88,NNW,347,0.0,9.0,38,0.00,,,0.00,meteohub,2013-03-18 20:02:00,
2013-03-18 15:07:00,69.3,41.9,29.88,WNW,299,0.0,9.0,37,0.00,,,0.00,meteohub,2013-03-18 20:07:00,
2013-03-18 15:12:00,69.3,41.9,29.88,ESE,109,0.0,12.0,37,0.00,,,0.00,meteohub,2013-03-18 20:12:00,
2013-03-18 15:17:00,69.4,42.1,29.88,NW,311,0.0,12.0,37,0.00,,,0.00,meteohub,2013-03-18 20:17:00,
2013-03-18 15:22:00,69.8,42.4,29.88,NW,321,2.0,12.0,37,0.00,,,0.00,meteohub,2013-03-18 20:22:00,
2013-03-18 15:27:00,70.2,41.9,29.88,NNW,332,7.0,12.0,36,0.00,,,0.00,meteohub,2013-03-18 20:27:00,
2013-03-18 15:32:00,70.0,41.0,29.88,NNW,330,11.0,12.0,35,0.00,,,0.00,meteohub,2013-03-18 20:32:00,
2013-03-18 15:37:00,69.6,41.5,29.88,NW,321,11.0,12.0,36,0.00,,,0.00,meteohub,2013-03-18 20:37:00,
2013-03-18 15:42:00,69.8,41.7,29.88,NW,320,5.0,14.0,36,0.00,,,0.00,meteohub,2013-03-18 20:42:00,
2013-03-18 15:47:00,70.0,42.4,29.88,NW,313,2.0,14.0,37,0.00,,,0.00,meteohub,2013-03-18 20:47:00,
2013-03-18 15:52:00,70.2,41.9,29.87,NNW,344,8.0,14.0,36,0.00,,,0.00,meteohub,2013-03-18 20:52:00,
2013-03-18 15:57:00,70.2,41.9,29.88,North,9,0.0,14.0,36,0.00,,,0.00,meteohub,2013-03-18 20:57:00,
2013-03-18 16:02:00,70.2,41.2,29.88,NNW,341,5.0,13.0,35,0.00,,,0.00,meteohub,2013-03-18 21:02:00,
2013-03-18 16:09:00,70.0,41.7,29.88,NW,311,0.0,13.0,36,0.00,,,0.00,meteohub,2013-03-18 21:09:00,
2013-03-18 16:14:00,70.0,41.0,29.88,NNW,338,0.0,13.0,35,0.00,,,0.00,meteohub,2013-03-18 21:14:00,
2013-03-18 16:19:00,70.0,41.7,29.88,WNW,300,5.0,11.0,36,0.00,,,0.00,meteohub,2013-03-18 21:19:00,
2013-03-18 16:24:00,70.2,41.2,29.89,NNW,331,5.0,11.0,35,0.00,,,0.00,meteohub,2013-03-18 21:24:00,
2013-03-18 16:29:00,70.2,40.5,29.88,NNW,335,0.0,11.0,34,0.00,,,0.00,meteohub,2013-03-18 21:29:00,
2013-03-18 16:34:00,70.2,40.5,29.88,NNW,328,0.0,11.0,34,0.00,,,0.00,meteohub,2013-03-18 21:34:00,
2013-03-18 16:39:00,70.0,41.0,29.89,NNW,337,0.0,11.0,35,0.00,,,0.00,meteohub,2013-03-18 21:39:00,
2013-03-18 16:44:00,69.8,41.7,29.89,NNW,342,7.0,11.0,36,0.00,,,0.00,meteohub,2013-03-18 21:44:00,
2013-03-18 16:50:00,70.0,41.7,29.89,NNW,340,9.0,11.0,36,0.00,,,0.00,meteohub,2013-03-18 21:50:00,
2013-03-18 16:55:00,70.2,41.2,29.89,NNW,327,0.0,10.0,35,0.00,,,0.00,meteohub,2013-03-18 21:55:00,
2013-03-18 17:00:00,70.2,41.9,29.89,NNW,346,0.0,11.0,36,0.00,,,0.00,meteohub,2013-03-18 22:00:00,
2013-03-18 17:05:00,70.2,41.2,29.89,NNW,328,6.0,11.0,35,0.00,,,0.00,meteohub,2013-03-18 22:05:00,
2013-03-18 17:10:00,70.2,41.2,29.89,NNW,344,2.0,11.0,35,0.00,,,0.00,meteohub,2013-03-18 22:10:00,
2013-03-18 17:15:00,70.2,41.2,29.89,NNW,345,0.0,11.0,35,0.00,,,0.00,meteohub,2013-03-18 22:15:00,
2013-03-18 17:20:00,70.3,41.4,29.88,North,350,0.0,11.0,35,0.00,,,0.00,meteohub,2013-03-18 22:20:00,
2013-03-18 17:25:00,70.5,41.5,29.88,NNW,327,2.0,11.0,35,0.00,,,0.00,meteohub,2013-03-18 22:25:00,
2013-03-18 17:30:00,70.5,40.8,29.88,North,351,0.0,8.0,34,0.00,,,0.00,meteohub,2013-03-18 22:30:00,
2013-03-18 17:35:00,70.5,41.5,29.89,NNE,15,4.0,8.0,35,0.00,,,0.00,meteohub,2013-03-18 22:35:00,
2013-03-18 17:40:00,70.9,41.2,29.88,North,355,0.0,9.0,34,0.00,,,0.00,meteohub,2013-03-18 22:40:00,
2013-03-18 17:45:00,71.1,41.4,29.88,NE,38,0.0,9.0,34,0.00,,,0.00,meteohub,2013-03-18 22:45:00,
2013-03-18 17:50:00,71.1,41.4,29.88,NNE,17,0.0,9.0,34,0.00,,,0.00,meteohub,2013-03-18 22:50:00,
2013-03-18 17:55:00,71.1,41.4,29.88,North,355,0.0,9.0,34,0.00,,,0.00,meteohub,2013-03-18 22:55:00,
2013-03-18 18:00:00,71.1,41.4,29.88,North,5,0.0,7.0,34,0.00,,,0.00,meteohub,2013-03-18 23:00:00,
2013-03-18 18:05:00,71.1,42.1,29.88,North,5,0.0,7.0,35,0.00,,,0.00,meteohub,2013-03-18 23:05:00,
2013-03-18 18:10:00,71.2,42.3,29.88,North,11,0.0,7.0,35,0.00,,,0.00,meteohub,2013-03-18 23:10:00,
2013-03-18 18:15:00,71.2,42.3,29.88,North,5,0.0,7.0,35,0.00,,,0.00,meteohub,2013-03-18 23:15:00,
2013-03-18 18:20:00,71.2,42.3,29.88,NNE,32,0.0,1.0,35,0.00,,,0.00,meteohub,2013-03-18 23:20:00,
2013-03-18 18:25:00,71.1,41.4,29.88,NNE,30,0.0,1.0,34,0.00,,,0.00,meteohub,2013-03-18 23:25:00,
2013-03-18 18:30:00,70.9,41.9,29.88,NNE,32,0.0,1.0,35,0.00,,,0.00,meteohub,2013-03-18 23:30:00,
2013-03-18 18:35:00,70.9,41.2,29.89,NNE,15,0.0,6.0,34,0.00,,,0.00,meteohub,2013-03-18 23:35:00,
2013-03-18 18:40:00,71.1,41.4,29.89,North,11,0.0,6.0,34,0.00,,,0.00,meteohub,2013-03-18 23:40:00,
2013-03-18 18:45:00,71.1,41.4,29.89,North,355,0.0,6.0,34,0.00,,,0.00,meteohub,2013-03-18 23:45:00,
2013-03-18 18:50:00,70.9,41.2,29.89,North,350,0.0,6.0,34,0.00,,,0.00,meteohub,2013-03-18 23:50:00,
2013-03-18 18:55:00,70.5,40.8,29.90,NNW,336,0.0,6.0,34,0.00,,,0.00,meteohub,2013-03-18 23:55:00,
2013-03-18 19:00:00,70.5,40.8,29.89,North,5,5.0,6.0,34,0.00,,,0.00,meteohub,2013-03-19 00:00:00,
2013-03-18 19:05:00,70.3,40.6,29.89,North,355,0.0,6.0,34,0.00,,,0.00,meteohub,2013-03-19 00:05:00,
2013-03-18 19:10:00,70.3,41.4,29.90,NNE,13,4.0,5.0,35,0.00,,,0.00,meteohub,2013-03-19 00:10:00,
2013-03-18 19:15:00,70.2,41.2,29.90,North,5,0.0,5.0,35,0.00,,,0.00,meteohub,2013-03-19 00:15:00,
2013-03-18 19:20:00,70.0,41.0,29.89,North,0,0.0,4.0,35,0.00,,,0.00,meteohub,2013-03-19 00:20:00,
2013-03-18 19:25:00,69.6,40.8,29.89,North,0,0.0,4.0,35,0.00,,,0.00,meteohub,2013-03-19 00:25:00,
2013-03-18 19:30:00,69.4,41.4,29.89,North,0,0.0,2.0,36,0.00,,,0.00,meteohub,2013-03-19 00:30:00,
2013-03-18 19:35:00,69.3,41.2,29.89,North,5,0.0,2.0,36,0.00,,,0.00,meteohub,2013-03-19 00:35:00,
2013-03-18 19:40:00,68.9,40.8,29.89,North,5,0.0,0.0,36,0.00,,,0.00,meteohub,2013-03-19 00:40:00,
2013-03-18 19:46:00,68.5,41.2,29.89,North,5,0.0,0.0,37,0.00,,,0.00,meteohub,2013-03-19 00:46:00,
2013-03-18 19:51:00,68.2,41.0,29.89,North,5,0.0,2.0,37,0.00,,,0.00,meteohub,2013-03-19 00:51:00,
2013-03-18 19:56:00,67.8,40.6,29.89,North,0,0.0,2.0,37,0.00,,,0.00,meteohub,2013-03-19 00:56:00,
2013-03-18 20:01:00,67.6,41.2,29.88,North,11,0.0,1.0,38,0.00,,,0.00,meteohub,2013-03-19 01:01:00,
2013-03-18 20:06:00,67.3,41.5,29.89,NE,34,0.0,1.0,39,0.00,,,0.00,meteohub,2013-03-19 01:06:00,
2013-03-18 20:11:00,66.7,41.0,29.89,NE,38,0.0,6.0,39,0.00,,,0.00,meteohub,2013-03-19 01:11:00,
2013-03-18 20:16:00,66.4,41.4,29.89,NE,41,2.0,6.0,40,0.00,,,0.00,meteohub,2013-03-19 01:16:00,
2013-03-18 20:21:00,65.8,41.5,29.89,NNE,30,0.0,6.0,41,0.00,,,0.00,meteohub,2013-03-19 01:21:00,
2013-03-18 20:26:00,65.7,41.4,29.89,NNE,33,0.0,6.0,41,0.00,,,0.00,meteohub,2013-03-19 01:26:00,
2013-03-18 20:32:00,65.1,40.8,29.89,NE,34,2.0,6.0,41,0.00,,,0.00,meteohub,2013-03-19 01:32:00,
2013-03-18 20:37:00,64.9,41.4,29.89,NE,34,0.0,6.0,42,0.00,,,0.00,meteohub,2013-03-19 01:37:00,
2013-03-18 20:42:00,64.8,41.2,29.90,NE,38,0.0,6.0,42,0.00,,,0.00,meteohub,2013-03-19 01:42:00,
2013-03-18 20:47:00,64.6,41.0,29.90,NE,36,0.0,6.0,42,0.00,,,0.00,meteohub,2013-03-19 01:47:00,
2013-03-18 20:52:00,64.0,40.5,29.90,NE,40,5.0,7.0,42,0.00,,,0.00,meteohub,2013-03-19 01:52:00,
2013-03-18 20:57:00,63.9,40.3,29.90,NNE,30,0.0,7.0,42,0.00,,,0.00,meteohub,2013-03-19 01:57:00,
2013-03-18 21:02:00,63.7,40.8,29.90,NNE,31,0.0,6.0,43,0.00,,,0.00,meteohub,2013-03-19 02:02:00,
2013-03-18 21:07:00,63.1,40.3,29.90,NNE,31,0.0,6.0,43,0.00,,,0.00,meteohub,2013-03-19 02:07:00,
2013-03-18 21:12:00,62.8,40.5,29.90,NNE,32,2.0,2.0,44,0.00,,,0.00,meteohub,2013-03-19 02:12:00,
2013-03-18 21:17:00,62.4,40.3,29.90,NNE,32,0.0,2.0,44,0.00,,,0.00,meteohub,2013-03-19 02:17:00,
2013-03-18 21:22:00,62.1,40.5,29.90,NNE,32,0.0,5.0,45,0.00,,,0.00,meteohub,2013-03-19 02:22:00,
2013-03-18 21:27:00,61.7,40.1,29.90,NNE,32,0.0,5.0,45,0.00,,,0.00,meteohub,2013-03-19 02:27:00,
2013-03-18 21:32:00,61.2,40.3,29.91,NNE,32,0.0,0.0,46,0.00,,,0.00,meteohub,2013-03-19 02:32:00,
2013-03-18 21:37:00,60.8,39.9,29.91,NNE,32,0.0,0.0,46,0.00,,,0.00,meteohub,2013-03-19 02:37:00,
2013-03-18 21:42:00,60.4,40.1,29.91,NNE,32,0.0,0.0,47,0.00,,,0.00,meteohub,2013-03-19 02:42:00,
2013-03-18 21:47:00,60.1,40.3,29.90,NNE,32,0.0,0.0,48,0.00,,,0.00,meteohub,2013-03-19 02:47:00,
2013-03-18 21:52:00,59.7,39.9,29.91,NNE,32,0.0,0.0,48,0.00,,,0.00,meteohub,2013-03-19 02:52:00,
2013-03-18 21:57:00,59.5,40.8,29.91,NNE,32,0.0,0.0,50,0.00,,,0.00,meteohub,2013-03-19 02:57:00,
2013-03-18 22:02:00,59.2,40.6,29.91,NNE,32,0.0,0.0,50,0.00,,,0.00,meteohub,2013-03-19 03:02:00,
2013-03-18 22:07:00,58.8,40.3,29.91,NNE,32,0.0,0.0,50,0.00,,,0.00,meteohub,2013-03-19 03:07:00,
2013-03-18 22:12:00,58.5,40.5,29.91,NNE,32,0.0,0.0,51,0.00,,,0.00,meteohub,2013-03-19 03:12:00,
2013-03-18 22:17:00,58.3,40.3,29.91,NNE,32,0.0,0.0,51,0.00,,,0.00,meteohub,2013-03-19 03:17:00,
2013-03-18 22:22:00,58.1,40.1,29.91,NNE,32,0.0,0.0,51,0.00,,,0.00,meteohub,2013-03-19 03:22:00,
2013-03-18 22:27:00,57.9,39.9,29.92,NNE,32,0.0,0.0,51,0.00,,,0.00,meteohub,2013-03-19 03:27:00,
2013-03-18 22:32:00,57.7,39.7,29.93,NNE,32,0.0,0.0,51,0.00,,,0.00,meteohub,2013-03-19 03:32:00,
2013-03-18 22:37:00,57.7,40.3,29.93,NNE,32,0.0,0.0,52,0.00,,,0.00,meteohub,2013-03-19 03:37:00,
2013-03-18 22:42:00,57.7,40.3,29.93,NNE,32,0.0,0.0,52,0.00,,,0.00,meteohub,2013-03-19 03:42:00,
2013-03-18 22:47:00,57.6,40.6,29.93,NNE,32,0.0,0.0,53,0.00,,,0.00,meteohub,2013-03-19 03:47:00,
2013-03-18 22:52:00,57.4,40.5,29.93,NNE,32,0.0,0.0,53,0.00,,,0.00,meteohub,2013-03-19 03:52:00,
2013-03-18 22:57:00,57.2,40.3,29.93,NNE,32,0.0,0.0,53,0.00,,,0.00,meteohub,2013-03-19 03:57:00,
2013-03-18 23:00:00,57.0,40.1,29.93,NNE,32,0.0,0.0,53,0.00,,,0.00,meteohub,2013-03-19 04:00:00,
2013-03-18 23:01:00,57.0,40.1,29.94,NNE,32,0.0,0.0,53,0.00,,,0.00,meteohub,2013-03-19 04:01:00,
2013-03-18 23:07:00,56.8,40.5,29.94,NNE,32,0.0,0.0,54,0.00,,,0.00,meteohub,2013-03-19 04:07:00,
2013-03-18 23:12:00,56.8,40.5,29.94,NNE,32,0.0,0.0,54,0.00,,,0.00,meteohub,2013-03-19 04:12:00,
2013-03-18 23:17:00,56.8,39.9,29.94,NNE,32,0.0,0.0,53,0.00,,,0.00,meteohub,2013-03-19 04:17:00,
2013-03-18 23:22:00,56.8,40.5,29.94,NNE,32,0.0,0.0,54,0.00,,,0.00,meteohub,2013-03-19 04:22:00,
2013-03-18 23:27:00,56.8,40.5,29.94,NNE,32,0.0,0.0,54,0.00,,,0.00,meteohub,2013-03-19 04:27:00,
2013-03-18 23:32:00,56.7,40.3,29.94,NNE,32,0.0,1.0,54,0.00,,,0.00,meteohub,2013-03-19 04:32:00,
2013-03-18 23:37:00,56.5,40.1,29.94,NNE,32,0.0,1.0,54,0.00,,,0.00,meteohub,2013-03-19 04:37:00,
2013-03-18 23:42:00,56.3,39.9,29.94,NNE,32,0.0,0.0,54,0.00,,,0.00,meteohub,2013-03-19 04:42:00,
2013-03-18 23:47:00,56.1,39.7,29.94,NNE,32,0.0,0.0,54,0.00,,,0.00,meteohub,2013-03-19 04:47:00,
2013-03-18 23:52:00,55.9,39.9,29.94,NNE,32,0.0,0.0,55,0.00,,,0.00,meteohub,2013-03-19 04:52:00,
2013-03-18 23:57:00,55.8,39.9,29.93,NNE,32,0.0,0.0,55,0.00,,,0.00,meteohub,2013-03-19 04:57:00,